Overview Statistics Trail Chart Weather Telemetry Raw packets
 

This is the latest recevied weather packets stored in our database for station/object M0HPP-13. If no packets are shown the sender has not sent any weather packets the latest 10 day(s).

<< 34 35 36 37 38 39 40 >>
Time Temp. Humidity Pressure Rain* Wind** Luminosity Snow
1788103086 13.33° C 99% 1003.9 hPa 0 mm - 49 W/m² -
1788102486 13.33° C 99% 1003.8 hPa 0 mm - 52 W/m² -
1788101886 12.78° C 99% 1004 hPa 0 mm - 59 W/m² -
1788101286 13.33° C 98% 1004.1 hPa 0 mm - 51 W/m² -
1788100686 13.33° C 98% 1004.1 hPa 0 mm - 61 W/m² -
1788100086 13.33° C 98% 1004.2 hPa 0 mm - 63 W/m² -
1788099486 13.33° C 98% 1004.2 hPa 0 mm - 61 W/m² -
1788098886 13.33° C 98% 1004.3 hPa 0 mm - 75 W/m² -
1788098286 13.33° C 97% 1004.3 hPa 0 mm - 97 W/m² -
1788097686 13.89° C 97% 1004.4 hPa 0 mm - 144 W/m² -
1788097086 13.33° C 97% 1004.2 hPa 0 mm - 181 W/m² -
1788096486 13.33° C 97% 1004.3 hPa 0 mm - 121 W/m² -
1788095886 13.89° C 97% 1004.3 hPa 0 mm - 215 W/m² -
1788095286 13.89° C 97% 1004.3 hPa 0 mm - 241 W/m² -
1788094686 13.33° C 97% 1004.4 hPa 0 mm - 222 W/m² -
1788094086 13.89° C 97% 1004.5 hPa 0 mm - 146 W/m² -
1788093486 13.89° C 96% 1004.5 hPa 0 mm - 160 W/m² -
1788092886 13.89° C 96% 1004.6 hPa 0 mm - 192 W/m² -
1788092286 13.89° C 97% 1004.5 hPa 0 mm - 208 W/m² -
1788091686 13.89° C 96% 1004.5 hPa 0 mm - 172 W/m² -
1788091086 14.44° C 96% 1004.5 hPa 0 mm - 322 W/m² -
1788090486 13.89° C 97% 1004.5 hPa 0 mm - 349 W/m² -
1788089886 13.89° C 97% 1004.5 hPa 0 mm - 265 W/m² -
1788089286 13.89° C 98% 1004.5 hPa 0 mm - 209 W/m² -
1788088686 13.33° C 99% 1004.7 hPa 0 mm - 166 W/m² -

* Rain latest hour (hover to see other rain measurements)
** Current wind speed in m/s (hover to see current wind gust speed)